カタログに戻る

THOR ABLESTAR DEB

運用中LEO
NORAD 3752·DEBRIS·🇺🇸 United States

打ち上げ Jun 29, 1961 から Cape Canaveral Space Force Station

Loading…

次のパス (今後24時間)

TLE

最新Source: Space-Track

元期: Sep 14, 2026, 01:42 UTC

1 03752U 61015JE  26257.07114009  .00000421  00000-0  65398-3 0  9995
2 03752  67.6273 276.7201 0205320 170.6247 222.7953 13.51205978817269

AllMySatでTHOR ABLESTAR DEBをリアルタイム追跡

Download on the App Store